CANX-4

Last updated on Tue Jul 01 2025 00:03:44 GMT+0000 (Coordinated Universal Time)

1 40055U 14034C 25181.57264816 .00000635 00000+0 90919-4 0 9997 2 40055 98.3604 38.1613 0014197 62.7998 297.4658 14.80258383592493
UTC large
Height (km)
Speed (km/s)
/
Latitude / Longitude
Inclination (degrees)
Orbital Period (minutes)
Azimuth
Elevation
Range (km)
Doppler Factor

Next 0 passes for location: London (51.5072 / 0.1276)

Sorry there are no passes over London.